Regional Weather Roundup
Issued by NWS Newport/Morehead, NC

Current Version | Previous Version | Graphics & Text | Print | Product List | Glossary Off
Versions: 1 2 3 4 5 6 7 8 9 10 11 12 13 14 15 16 17 18 19 20 21 22 23 24 25 26 27 28 29 30 31 32 33 34 35 36 37 38 39 40 41 42 43 44 45 46 47 48 49 50

000
ASUS42 KMHX 030622
RWRMHX
WEATHER ROUNDUP FOR EASTERN NORTH CAROLINA
NATIONAL WEATHER SERVICE NEWPORT/MOREHEAD CITY NC
200 AM EDT WED SEP 03 2014

NOTE: "FAIR" INDICATES FEW OR NO CLOUDS BELOW 12,000 FEET
WITH NO SIGNIFICANT WEATHER AND/OR OBSTRUCTIONS TO VISIBILITY

NCZ015>017-031-032-045>047-102-103-030700-
NORTH COAST

CITY           SKY/WX    TMP DP  RH WIND       PRES   REMARKS
EDENTON        FAIR      79  75  89 SW8       30.00S
ELIZABETH CITY FAIR      78  75  90 SW8       29.99F
KITTY HAWK     FAIR      79  74  85 SW8       29.99S
MANTEO         FAIR      79  75  87 SW13      30.00F

$$

NCZ045>047-081-094-103-104-030700-
CENTRAL COAST

CITY           SKY/WX    TMP DP  RH WIND       PRES   REMARKS
FRISCO         FAIR      79  77  94 SW15      30.03S
SWANQUARTER      N/A     81 N/A N/A SW12G18   29.97F

$$

NCZ095-097-098-100-101-030700-
SOUTHERN COAST

CITY           SKY/WX    TMP DP  RH WIND       PRES   REMARKS
BEAUFORT       FAIR      82  76  81 SW14      30.03F
CEDAR ISLAND     N/A     79 N/A N/A SW7G14    30.06S
JACKSONVILLE   FAIR      77  74  90 SW3       30.03S
NEWPORT        NOT AVBL
PINEY ISLAND   FAIR      80  78  94 SW6       30.02S
WILMINGTON     FAIR      79  75  87 SW7       30.03S


$$

NCZ011>013-027>030-043-044-078>080-089-090>093-098-030700-
COASTAL PLAIN

CITY           SKY/WX    TMP DP  RH WIND       PRES   REMARKS
AHOSKIE        FAIR      73  71  92 CALM      30.00S
CLINTON        FAIR      77  76  97 CALM      30.03F
ELIZABETHTOWN  FAIR      78  76  94 SW5       30.04S
GOLDSBORO      FAIR      78  77  98 SW5       30.00S
GREENVILLE     FAIR      77  75  94 SW8       30.03S
HAVELOCK       FAIR      77  75  93 SW6       30.04S
KENANSVILLE    FAIR      77  74  91 SW5       30.04S
KINSTON        FAIR      79  75  89 SW7       30.02F
NEW BERN       FAIR      78  74  87 SW6       30.03S
RICHLANDS      FAIR      75  72  88 SW3       30.03F
ROANOKE RAPIDS NOT AVBL
ROCKY MOUNT    FAIR      74  72  93 SW5       30.01S
WASHINGTON     FAIR      77  74  90 SW7       30.01F
WHITEVILLE     FAIR      78  74  89 SW3       30.03F

$$

AMZ130-135-150-152-154-156-158-170-250-252-270-ANZ085-086-088-633-658-670-030700-
MARINE OBSERVATIONS

STATION/POSITION TIME  TEMP    WIND        PRES    WAVE   SWELL
                       AIR SEA DIR/SP/G            HT/PER HT/PER
                 (UTC) (F)     (DEG/KT/KT) (MB)    (FT/S) (FT/S)
CHESAPEAKE LIGHT 0600   80     230/ 19/ 20 1015.1
BUOY 44014       0600   79 77  220/ 17/ 21 1014.4    4/ 5   2/ 9
DUCK             0600   80 75  220/ 15/ 20 1014.9
2E DUCK          0600                        N/A     2/13   2/13
OREGON INLET     0600   81 85  220/ 15/ 18 1016.0
BUOY 44095       0600      80                N/A     3/ 4
20E OREGON INLET NOT AVBL
HATTERAS CG      0600   81 84  230/ 11/ 14 1017.1
DIAMOND BUOY     0600   81     230/ 17/ 19 1016.5    4/ 5   2/14
CAPE LOOKOUT     0600   81     230/ 11/ 16 1016.8
BEAUFORT LAB     0600   81 83  230/  7/ 12 1016.4
30 SE NEW RIVER  0600   82 82  240/ 16/ 17 1017.2    3/ 4   2/ 9
5 SE WRIGHTSVILL 0500   79 83  230/ 14/ 17   N/A
BUOY 41002       0550   81 83  200/ 12/ 14 1019.4    3/12   2/12
BUOY 41004       0600   83 83  220/ 10/ 12 1016.8    2/ 8   2/ 8

$$


USA.gov is the U.S. government's official web portal to all federal, state and local government web resources and services.